START_TIME,STEP,MOV.,EG07,t_acc.,EG08,t_acc.,EG09,t_acc.,EB05,t_acc.,EBP05,t_acc.
1980-11-16 06:00:11.440 ,5,0,0.,1.2,0.,1.2,0.,1.2,,0.0,,0.0
1980-11-16 06:00:12.640 ,5,0,0.,1.2,0.,1.2,0.,1.2,,0.0,,0.0
1980-11-16 06:00:13.840 ,5,0,0.,1.2,0.,1.2,0.,1.2,,0.0,,0.0
1980-11-16 06:00:15.040 ,5,0,0.,1.2,0.,1.2,0.,1.2,,0.0,,0.0
1980-11-16 06:00:16.240 ,5,0,0.,1.2,0.,1.2,0.,1.2,,0.0,,0.0
1980-11-16 06:00:17.440 ,5,0,0.,1.2,0.,1.2,0.,1.2,,0.0,,0.0
1980-11-16 06:00:18.640 ,5,0,0.,1.2,0.,1.2,0.,1.2,,0.0,,0.0
1980-11-16 06:00:19.840 ,5,0,0.,1.2,0.,1.2,0.,1.2,,0.0,,0.0
1980-11-16 06:00:21.040 ,5,0,0.,1.2,0.,1.2,0.,1.2,,0.0,,0.0
1980-11-16 06:00:22.240 ,5,0,0.,1.2,0.,1.2,0.,1.2,,0.0,,0.0
1980-11-16 06:00:23.440 ,5,0,0.,1.2,0.,1.2,0.,1.2,,0.0,,0.0
1980-11-16 06:00:24.640 ,5,0,0.,1.2,0.,1.2,0.,1.2,,0.0,,0.0
1980-11-16 06:00:25.840 ,5,0,0.,1.2,0.,1.2,0.,1.2,,0.0,,0.0
1980-11-16 06:00:27.040 ,5,0,0.,1.2,0.,1.2,0.,1.2,,0.0,,0.0
1980-11-16 06:00:28.240 ,5,0,0.,1.2,0.,1.2,0.,1.2,,0.0,,0.0
1980-11-16 06:00:29.440 ,5,0,0.,1.2,0.,1.2,0.,1.2,,0.0,,0.0
1980-11-16 06:00:30.640 ,5,0,0.,1.2,0.,1.2,0.,1.2,,0.0,,0.0
1980-11-16 06:00:31.840 ,5,0,0.,1.2,0.,1.2,0.,1.2,,0.0,,0.0
1980-11-16 06:00:33.040 ,5,0,0.,1.2,0.,1.2,0.,1.2,,0.0,,0.0
1980-11-16 06:00:34.240 ,5,0,0.,1.2,0.,1.2,0.,1.2,,0.0,,0.0
1980-11-16 06:00:35.440 ,6,0,0.,1.2,0.,1.2,0.,1.2,,0.0,,0.0
1980-11-16 06:00:36.640 ,6,0,0.,1.2,0.,1.2,0.,1.2,,0.0,,0.0
1980-11-16 06:00:37.840 ,6,0,0.,1.2,0.,1.2,0.,1.2,,0.0,,0.0
1980-11-16 06:00:39.040 ,6,0,0.,1.2,0.,1.2,0.,1.2,,0.0,,0.0
1980-11-16 06:00:40.240 ,6,0,0.,1.2,0.,1.2,0.,1.2,,0.0,,0.0
1980-11-16 06:00:41.440 ,6,0,0.,1.2,0.,1.2,0.,1.2,,0.0,,0.0
1980-11-16 06:00:42.640 ,6,0,0.,1.2,0.,1.2,0.,1.2,,0.0,,0.0
1980-11-16 06:00:43.840 ,6,0,0.,1.2,0.,1.2,0.,1.2,,0.0,,0.0
1980-11-16 06:00:45.040 ,6,0,0.,1.2,0.,1.2,0.,1.2,,0.0,,0.0
1980-11-16 06:00:46.240 ,6,0,0.,1.2,0.,1.2,0.,1.2,,0.0,,0.0
1980-11-16 06:00:47.440 ,6,0,0.,1.2,0.,1.2,0.,1.2,,0.0,,0.0
1980-11-16 06:00:48.640 ,6,0,0.,1.2,0.,1.2,0.,1.2,,0.0,,0.0
1980-11-16 06:00:49.840 ,6,0,0.,1.2,0.,1.2,0.,1.2,,0.0,,0.0
1980-11-16 06:00:51.040 ,6,0,0.,1.2,0.,1.2,0.,1.2,,0.0,,0.0
1980-11-16 06:00:52.240 ,6,0,0.,1.2,0.,1.2,0.,1.2,,0.0,,0.0
1980-11-16 06:00:53.440 ,6,0,0.,1.2,0.,1.2,0.,1.2,,0.0,,0.0
1980-11-16 06:00:54.640 ,6,0,0.,1.2,0.,1.2,0.,1.2,,0.0,,0.0
1980-11-16 06:00:55.840 ,6,0,0.,1.2,0.,1.2,0.,1.2,,0.0,,0.0
1980-11-16 06:00:57.040 ,6,0,0.,1.2,0.,1.2,0.,1.2,,0.0,,0.0
1980-11-16 06:00:58.240 ,6,0,0.,1.2,0.,1.2,0.,1.2,,0.0,,0.0
1980-11-16 06:00:59.440 ,6,0,0.,1.2,0.,1.2,0.,1.2,,0.0,,0.0
1980-11-16 06:01:00.640 ,6,0,0.,1.2,0.,1.2,0.,1.2,,0.0,,0.0
1980-11-16 06:01:01.840 ,6,0,0.,1.2,0.,1.2,0.,1.2,,0.0,,0.0
1980-11-16 06:01:03.040 ,6,0,0.,1.2,0.,1.2,0.,1.2,,0.0,,0.0
1980-11-16 06:01:04.240 ,6,0,0.,1.2,0.,1.2,0.,1.2,,0.0,,0.0
1980-11-16 06:01:05.440 ,6,0,0.,1.2,0.,1.2,0.,1.2,,0.0,,0.0
1980-11-16 06:01:06.640 ,6,0,0.,1.2,0.,1.2,0.,1.2,,0.0,,0.0
1980-11-16 06:01:07.840 ,6,0,0.,1.2,0.,1.2,0.,1.2,,0.0,,0.0
1980-11-16 06:01:09.040 ,6,0,0.,1.2,0.,1.2,0.,1.2,,0.0,,0.0
1980-11-16 06:01:10.240 ,6,0,0.,1.2,0.,1.2,0.,1.2,,0.0,,0.0
1980-11-16 06:01:11.440 ,6,0,0.,1.2,0.,1.2,0.,1.2,,0.0,,0.0
1980-11-16 06:01:12.640 ,6,0,0.,1.2,0.,1.2,0.,1.2,,0.0,,0.0
1980-11-16 06:01:13.840 ,6,0,0.,1.2,0.,1.2,0.,1.2,,0.0,,0.0
1980-11-16 06:01:15.040 ,6,0,0.,1.2,0.,1.2,0.,1.2,,0.0,,0.0
1980-11-16 06:01:16.240 ,6,0,0.,1.2,0.,1.2,0.,1.2,,0.0,,0.0
1980-11-16 06:01:17.440 ,6,0,0.,1.2,0.,1.2,0.,1.2,,0.0,,0.0
1980-11-16 06:01:18.640 ,6,0,0.,1.2,0.,1.2,0.,1.2,,0.0,,0.0
1980-11-16 06:01:19.840 ,6,0,0.,1.2,0.,1.2,0.,1.2,,0.0,,0.0
1980-11-16 06:01:21.040 ,6,0,0.,1.2,0.,1.2,0.,1.2,,0.0,,0.0
1980-11-16 06:01:22.240 ,6,0,0.,1.2,0.,1.2,0.,1.2,,0.0,,0.0
1980-11-16 06:01:23.440 ,7,0,0.,1.2,0.,1.2,0.,1.2,,0.0,,0.0
1980-11-16 06:01:24.640 ,7,0,0.,1.2,0.,1.2,0.,1.2,,0.0,,0.0
1980-11-16 06:01:25.840 ,7,0,0.,1.2,0.,1.2,0.,1.2,,0.0,,0.0
1980-11-16 06:01:27.040 ,7,0,0.,1.2,0.,1.2,0.,1.2,,0.0,,0.0
1980-11-16 06:01:28.240 ,7,0,0.,1.2,0.,1.2,0.,1.2,,0.0,,0.0
1980-11-16 06:01:29.440 ,7,0,0.,1.2,0.,1.2,0.,1.2,,0.0,,0.0
1980-11-16 06:01:30.640 ,7,0,0.,1.2,0.,1.2,0.,1.2,,0.0,,0.0
1980-11-16 06:01:31.840 ,7,0,0.,1.2,0.,1.2,0.,1.2,,0.0,,0.0
1980-11-16 06:01:33.040 ,7,0,0.,1.2,0.,1.2,0.,1.2,,0.0,,0.0
1980-11-16 06:01:34.240 ,7,0,0.,1.2,0.,1.2,0.,1.2,,0.0,,0.0
1980-11-16 06:01:35.440 ,7,0,0.,1.2,0.,1.2,0.,1.2,,0.0,,0.0
1980-11-16 06:01:36.640 ,7,0,0.,1.2,0.,1.2,0.,1.2,,0.0,,0.0
1980-11-16 06:01:37.840 ,7,0,0.,1.2,0.,1.2,0.,1.2,,0.0,,0.0
1980-11-16 06:01:39.040 ,7,0,0.,1.2,0.,1.2,0.,1.2,,0.0,,0.0
1980-11-16 06:01:40.240 ,7,0,0.,1.2,0.,1.2,0.,1.2,,0.0,,0.0
1980-11-16 06:01:41.440 ,7,0,0.,1.2,0.,1.2,0.,1.2,,0.0,,0.0
1980-11-16 06:01:42.640 ,7,0,0.,1.2,0.,1.2,0.,1.2,,0.0,,0.0
1980-11-16 06:01:43.840 ,7,0,0.,1.2,0.,1.2,0.,1.2,,0.0,,0.0
1980-11-16 06:01:45.040 ,7,0,0.,1.2,0.,1.2,0.,1.2,,0.0,,0.0
1980-11-16 06:01:46.240 ,7,0,0.,1.2,0.,1.2,0.,1.2,,0.0,,0.0
1980-11-16 06:01:47.440 ,7,0,0.,1.2,0.,1.2,0.,1.2,,0.0,,0.0
1980-11-16 06:01:48.640 ,7,0,0.,1.2,0.,1.2,0.,1.2,,0.0,,0.0
1980-11-16 06:01:49.840 ,7,0,0.,1.2,0.,1.2,0.,1.2,,0.0,,0.0
1980-11-16 06:01:51.040 ,7,0,0.,1.2,0.,1.2,0.,1.2,,0.0,,0.0
1980-11-16 06:01:52.240 ,7,0,0.,1.2,0.,1.2,0.,1.2,,0.0,,0.0
1980-11-16 06:01:53.440 ,7,0,0.,1.2,0.,1.2,0.,1.2,,0.0,,0.0
1980-11-16 06:01:54.640 ,7,0,0.,1.2,0.,1.2,0.,1.2,,0.0,,0.0
1980-11-16 06:01:55.840 ,7,0,0.,1.2,0.,1.2,0.,1.2,,0.0,,0.0
1980-11-16 06:01:57.040 ,7,0,0.,1.2,0.,1.2,0.,1.2,,0.0,,0.0
1980-11-16 06:01:58.240 ,7,0,0.,1.2,0.,1.2,0.,1.2,,0.0,,0.0
1980-11-16 06:01:59.440 ,7,0,0.,1.2,0.,1.2,0.,1.2,,0.0,,0.0
1980-11-16 06:02:00.640 ,7,0,0.,1.2,0.,1.2,0.,1.2,,0.0,,0.0
1980-11-16 06:02:01.840 ,7,0,0.,1.2,0.,1.2,0.,1.2,,0.0,,0.0
1980-11-16 06:02:03.040 ,7,0,0.,1.2,0.,1.2,0.,1.2,,0.0,,0.0
1980-11-16 06:02:04.240 ,7,0,0.,1.2,0.,1.2,0.,1.2,,0.0,,0.0
1980-11-16 06:02:05.440 ,7,0,0.,1.2,0.,1.2,0.,1.2,,0.0,,0.0
1980-11-16 06:02:06.640 ,7,0,0.,1.2,0.,1.2,0.,1.2,,0.0,,0.0
1980-11-16 06:02:07.840 ,7,0,0.,1.2,0.,1.2,0.,1.2,,0.0,,0.0
1980-11-16 06:02:09.040 ,7,0,0.,1.2,0.,1.2,0.,1.2,,0.0,,0.0
1980-11-16 06:02:10.240 ,7,0,0.,1.2,0.,1.2,0.,1.2,,0.0,,0.0
1980-11-16 06:02:11.440 ,7,0,0.,1.2,0.,1.2,0.,1.2,,0.0,,0.0
1980-11-16 06:02:12.640 ,7,0,0.,1.2,0.,1.2,0.,1.2,,0.0,,0.0
1980-11-16 06:02:13.840 ,7,0,0.,1.2,0.,1.2,0.,1.2,,0.0,,0.0
1980-11-16 06:02:15.040 ,7,0,0.,1.2,0.,1.2,0.,1.2,,0.0,,0.0
1980-11-16 06:02:16.240 ,7,0,0.,1.2,0.,1.2,0.,1.2,,0.0,,0.0
1980-11-16 06:02:17.440 ,7,0,0.,1.2,0.,1.2,0.,1.2,,0.0,,0.0
1980-11-16 06:02:18.640 ,7,0,0.,1.2,0.,1.2,0.,1.2,,0.0,,0.0
1980-11-16 06:02:19.840 ,7,0,0.,1.2,0.,1.2,0.,1.2,,0.0,,0.0
1980-11-16 06:02:21.040 ,7,0,0.,1.2,0.,1.2,0.,1.2,,0.0,,0.0
1980-11-16 06:02:22.240 ,7,0,0.,1.2,0.,1.2,0.,1.2,,0.0,,0.0
1980-11-16 06:02:23.440 ,7,0,0.,1.2,0.,1.2,0.,1.2,,0.0,,0.0
1980-11-16 06:02:24.640 ,7,0,0.,1.2,0.,1.2,0.,1.2,,0.0,,0.0
1980-11-16 06:02:25.840 ,7,0,0.,1.2,0.,1.2,0.,1.2,,0.0,,0.0
1980-11-16 06:02:27.040 ,7,0,0.,1.2,0.,1.2,0.,1.2,,0.0,,0.0
1980-11-16 06:02:28.240 ,7,0,0.,1.2,0.,1.2,0.,1.2,,0.0,,0.0
1980-11-16 06:02:29.440 ,7,0,0.,1.2,0.,1.2,0.,1.2,,0.0,,0.0
1980-11-16 06:02:30.640 ,7,0,0.,1.2,0.,1.2,0.,1.2,,0.0,,0.0
1980-11-16 06:02:31.840 ,7,0,0.,1.2,0.,1.2,0.,1.2,,0.0,,0.0
1980-11-16 06:02:33.040 ,7,0,0.,1.2,0.,1.2,0.,1.2,,0.0,,0.0
1980-11-16 06:02:34.240 ,7,0,0.,1.2,0.,1.2,0.,1.2,,0.0,,0.0
1980-11-16 06:02:35.440 ,7,0,0.,1.2,0.,1.2,0.,1.2,,0.0,,0.0
1980-11-16 06:02:36.640 ,7,0,0.,1.2,0.,1.2,0.,1.2,,0.0,,0.0
1980-11-16 06:02:37.840 ,7,0,0.,1.2,0.,1.2,0.,1.2,,0.0,,0.0
1980-11-16 06:02:39.040 ,7,0,0.,1.2,0.,1.2,0.,1.2,,0.0,,0.0
1980-11-16 06:02:40.240 ,7,0,0.,1.2,0.,1.2,0.,1.2,,0.0,,0.0
1980-11-16 06:02:41.440 ,7,0,0.,1.2,0.,1.2,0.,1.2,,0.0,,0.0
1980-11-16 06:02:42.640 ,7,0,0.,1.2,0.,1.2,0.,1.2,,0.0,,0.0
1980-11-16 06:02:43.840 ,7,0,0.,1.2,0.,1.2,0.,1.2,,0.0,,0.0
1980-11-16 06:02:45.040 ,7,0,0.,1.2,0.,1.2,0.,1.2,,0.0,,0.0
1980-11-16 06:02:46.240 ,7,0,0.,1.2,0.,1.2,0.,1.2,,0.0,,0.0
1980-11-16 06:02:47.440 ,7,0,0.,1.2,0.,1.2,0.,1.2,,0.0,,0.0
1980-11-16 06:02:48.640 ,7,0,0.,1.2,0.,1.2,0.,1.2,,0.0,,0.0
1980-11-16 06:02:49.840 ,7,0,0.,1.2,0.,1.2,0.,1.2,,0.0,,0.0
1980-11-16 06:02:51.040 ,7,0,0.,1.2,0.,1.2,0.,1.2,,0.0,,0.0
1980-11-16 06:02:52.240 ,7,0,0.,1.2,0.,1.2,0.,1.2,,0.0,,0.0
1980-11-16 06:02:53.440 ,7,0,0.,1.2,0.,1.2,0.,1.2,,0.0,,0.0
1980-11-16 06:02:54.640 ,7,0,0.,1.2,0.,1.2,0.,1.2,,0.0,,0.0
1980-11-16 06:02:55.840 ,7,0,0.,1.2,0.,1.2,0.,1.2,,0.0,,0.0
1980-11-16 06:02:57.040 ,7,0,0.,1.2,0.,1.2,0.,1.2,,0.0,,0.0
1980-11-16 06:02:58.240 ,7,0,0.,1.2,0.,1.2,0.,1.2,,0.0,,0.0
1980-11-16 06:02:59.440 ,6,0,0.,1.2,0.,1.2,0.,1.2,,0.0,,0.0
1980-11-16 06:03:00.640 ,6,0,0.,1.2,0.,1.2,0.,1.2,,0.0,,0.0
1980-11-16 06:03:01.840 ,6,0,0.,1.2,0.,1.2,0.,1.2,,0.0,,0.0
1980-11-16 06:03:03.040 ,6,0,0.,1.2,0.,1.2,0.,1.2,,0.0,,0.0
1980-11-16 06:03:04.240 ,6,0,0.,1.2,0.,1.2,0.,1.2,,0.0,,0.0
1980-11-16 06:03:05.440 ,6,0,0.,1.2,0.,1.2,0.,1.2,,0.0,,0.0
1980-11-16 06:03:06.640 ,6,0,0.,1.2,0.,1.2,0.,1.2,,0.0,,0.0
1980-11-16 06:03:07.840 ,6,0,0.,1.2,0.,1.2,0.,1.2,,0.0,,0.0
1980-11-16 06:03:09.040 ,6,0,0.,1.2,0.,1.2,0.,1.2,,0.0,,0.0
1980-11-16 06:03:10.240 ,6,0,0.,1.2,0.,1.2,0.,1.2,,0.0,,0.0
1980-11-16 06:03:11.440 ,6,0,0.,1.2,0.,1.2,0.,1.2,,0.0,,0.0
1980-11-16 06:03:12.640 ,6,0,0.,1.2,0.,1.2,0.,1.2,,0.0,,0.0
1980-11-16 06:03:13.840 ,6,0,0.,1.2,0.,1.2,0.,1.2,,0.0,,0.0
1980-11-16 06:03:15.040 ,6,0,0.,1.2,0.,1.2,0.,1.2,,0.0,,0.0
1980-11-16 06:03:16.240 ,6,0,0.,1.2,0.,1.2,0.,1.2,,0.0,,0.0
1980-11-16 06:03:17.440 ,6,0,0.,1.2,0.,1.2,0.,1.2,,0.0,,0.0
1980-11-16 06:03:18.640 ,6,0,0.,1.2,0.,1.2,0.,1.2,,0.0,,0.0
1980-11-16 06:03:19.840 ,6,0,0.,1.2,0.,1.2,0.,1.2,,0.0,,0.0
1980-11-16 06:03:21.040 ,6,0,0.,1.2,0.,1.2,0.,1.2,,0.0,,0.0
1980-11-16 06:03:22.240 ,6,0,0.,1.2,0.,1.2,0.,1.2,,0.0,,0.0
1980-11-16 06:03:23.440 ,6,0,0.,1.2,0.,1.2,0.,1.2,,0.0,,0.0
1980-11-16 06:03:24.640 ,6,0,0.,1.2,0.,1.2,0.,1.2,,0.0,,0.0
1980-11-16 06:03:25.840 ,6,0,0.,1.2,0.,1.2,0.,1.2,,0.0,,0.0
1980-11-16 06:03:27.040 ,6,0,0.,1.2,0.,1.2,0.,1.2,,0.0,,0.0
1980-11-16 06:03:28.240 ,6,0,0.,1.2,0.,1.2,0.,1.2,,0.0,,0.0
1980-11-16 06:03:29.440 ,6,0,0.,1.2,0.,1.2,0.,1.2,,0.0,,0.0
1980-11-16 06:03:30.640 ,6,0,0.,1.2,0.,1.2,0.,1.2,,0.0,,0.0
1980-11-16 06:03:31.840 ,6,0,0.,1.2,0.,1.2,0.,1.2,,0.0,,0.0
1980-11-16 06:03:33.040 ,6,0,0.,1.2,0.,1.2,0.,1.2,,0.0,,0.0
1980-11-16 06:03:34.240 ,6,0,0.,1.2,0.,1.2,0.,1.2,,0.0,,0.0
1980-11-16 06:03:35.440 ,6,0,0.,1.2,0.,1.2,0.,1.2,,0.0,,0.0
1980-11-16 06:03:36.640 ,6,0,0.,1.2,0.,1.2,0.,1.2,,0.0,,0.0
1980-11-16 06:03:37.840 ,6,0,0.,1.2,0.,1.2,0.,1.2,,0.0,,0.0
1980-11-16 06:03:39.040 ,6,0,0.,1.2,0.,1.2,0.,1.2,,0.0,,0.0
1980-11-16 06:03:40.240 ,6,0,0.,1.2,0.,1.2,0.,1.2,,0.0,,0.0
1980-11-16 06:03:41.440 ,6,0,0.,1.2,0.,1.2,0.,1.2,,0.0,,0.0
1980-11-16 06:03:42.640 ,6,0,0.,1.2,0.,1.2,0.,1.2,,0.0,,0.0
1980-11-16 06:03:43.840 ,6,0,0.,1.2,0.,1.2,0.,1.2,,0.0,,0.0
1980-11-16 06:03:45.040 ,6,0,0.,1.2,0.,1.2,0.,1.2,,0.0,,0.0
1980-11-16 06:03:46.240 ,6,0,0.,1.2,0.,1.2,0.,1.2,,0.0,,0.0
1980-11-16 06:03:47.440 ,5,0,0.,1.2,0.,1.2,0.,1.2,,0.0,,0.0
1980-11-16 06:03:48.640 ,5,0,0.,1.2,0.,1.2,0.,1.2,,0.0,,0.0
1980-11-16 06:03:49.840 ,5,0,0.,1.2,0.,1.2,0.,1.2,,0.0,,0.0
1980-11-16 06:03:51.040 ,5,0,0.,1.2,0.,1.2,0.,1.2,,0.0,,0.0
1980-11-16 06:03:52.240 ,5,0,0.,1.2,0.,1.2,0.,1.2,,0.0,,0.0
1980-11-16 06:03:53.440 ,5,0,0.,1.2,0.,1.2,0.,1.2,,0.0,,0.0
1980-11-16 06:03:54.640 ,5,0,0.,1.2,0.,1.2,0.,1.2,,0.0,,0.0
1980-11-16 06:03:55.840 ,5,0,0.,1.2,0.,1.2,0.,1.2,,0.0,,0.0
1980-11-16 06:03:57.040 ,5,0,0.,1.2,0.,1.2,0.,1.2,,0.0,,0.0
1980-11-16 06:03:58.240 ,5,0,0.,1.2,0.,1.2,0.,1.2,,0.0,,0.0
1980-11-16 06:03:59.440 ,5,0,0.,1.2,0.,1.2,0.,1.2,,0.0,,0.0
1980-11-16 06:04:00.640 ,5,0,0.,1.2,0.,1.2,0.,1.2,,0.0,,0.0
1980-11-16 06:04:01.840 ,5,0,0.,1.2,0.,1.2,0.,1.2,,0.0,,0.0
1980-11-16 06:04:03.040 ,5,0,0.,1.2,0.,1.2,0.,1.2,,0.0,,0.0
1980-11-16 06:04:04.240 ,5,0,0.,1.2,0.,1.2,0.,1.2,,0.0,,0.0
1980-11-16 06:04:05.440 ,5,0,0.,1.2,0.,1.2,0.,1.2,,0.0,,0.0
1980-11-16 06:04:06.640 ,5,0,0.,1.2,0.,1.2,0.,1.2,,0.0,,0.0
1980-11-16 06:04:07.840 ,5,0,0.,1.2,0.,1.2,0.,1.2,,0.0,,0.0
1980-11-16 06:04:09.040 ,5,0,0.,1.2,0.,1.2,0.,1.2,,0.0,,0.0
1980-11-16 06:04:10.240 ,5,0,0.,1.2,0.,1.2,0.,1.2,,0.0,,0.0
1980-11-16 06:04:11.440 ,5,0,0.,1.2,0.,1.2,0.,1.2,,0.0,,0.0
1980-11-16 06:04:12.640 ,5,0,0.,1.2,0.,1.2,0.,1.2,,0.0,,0.0
1980-11-16 06:04:13.840 ,5,0,0.,1.2,0.,1.2,0.,1.2,,0.0,,0.0
1980-11-16 06:04:15.040 ,5,0,0.,1.2,0.,1.2,0.,1.2,,0.0,,0.0
1980-11-16 06:04:16.240 ,5,0,0.,1.2,0.,1.2,0.,1.2,,0.0,,0.0
1980-11-16 06:04:17.440 ,5,0,0.,1.2,0.,1.2,0.,1.2,,0.0,,0.0
1980-11-16 06:04:18.640 ,5,0,0.,1.2,0.,1.2,0.,1.2,,0.0,,0.0
1980-11-16 06:04:19.840 ,5,0,0.,1.2,0.,1.2,0.,1.2,,0.0,,0.0
1980-11-16 06:04:21.040 ,5,0,0.,1.2,0.,1.2,0.,1.2,,0.0,,0.0
1980-11-16 06:04:22.240 ,5,0,0.,1.2,0.,1.2,0.,1.2,,0.0,,0.0
1980-11-16 06:04:23.440 ,5,0,0.,1.2,0.,1.2,0.,1.2,,0.0,,0.0
1980-11-16 06:04:24.640 ,5,0,0.,1.2,0.,1.2,0.,1.2,,0.0,,0.0
1980-11-16 06:04:25.840 ,5,0,0.,1.2,0.,1.2,0.,1.2,,0.0,,0.0
1980-11-16 06:04:27.040 ,5,0,0.,1.2,0.,1.2,0.,1.2,,0.0,,0.0
1980-11-16 06:04:28.240 ,5,0,0.,1.2,0.,1.2,0.,1.2,,0.0,,0.0
1980-11-16 06:04:29.440 ,5,0,0.,1.2,0.,1.2,0.,1.2,,0.0,,0.0
1980-11-16 06:04:30.640 ,5,0,0.,1.2,0.,1.2,0.,1.2,,0.0,,0.0
1980-11-16 06:04:31.840 ,5,0,0.,1.2,0.,1.2,0.,1.2,,0.0,,0.0
1980-11-16 06:04:33.040 ,5,0,0.,1.2,0.,1.2,0.,1.2,,0.0,,0.0
1980-11-16 06:04:34.240 ,5,0,0.,1.2,0.,1.2,0.,1.2,,0.0,,0.0
1980-11-16 06:04:35.440 ,4,0,0.,1.2,0.,1.2,0.,1.2,,0.0,,0.0
1980-11-16 06:04:36.640 ,4,0,0.,1.2,0.,1.2,0.,1.2,,0.0,,0.0
1980-11-16 06:04:37.840 ,4,0,0.,1.2,0.,1.2,0.,1.2,,0.0,,0.0
1980-11-16 06:04:39.040 ,4,0,0.,1.2,0.,1.2,0.,1.2,,0.0,,0.0
1980-11-16 06:04:40.240 ,4,0,0.,1.2,0.,1.2,0.,1.2,,0.0,,0.0
1980-11-16 06:04:41.440 ,4,0,0.,1.2,0.,1.2,0.,1.2,,0.0,,0.0
1980-11-16 06:04:42.640 ,4,0,0.,1.2,0.,1.2,0.,1.2,,0.0,,0.0
1980-11-16 06:04:43.840 ,4,0,0.,1.2,0.,1.2,0.,1.2,,0.0,,0.0
1980-11-16 06:04:45.040 ,4,0,0.,1.2,0.,1.2,0.,1.2,,0.0,,0.0
1980-11-16 06:04:46.240 ,4,0,0.,1.2,0.,1.2,0.,1.2,,0.0,,0.0
1980-11-16 06:04:47.440 ,4,0,0.,1.2,0.,1.2,0.,1.2,,0.0,,0.0
1980-11-16 06:04:48.640 ,4,0,0.,1.2,0.,1.2,0.,1.2,,0.0,,0.0
1980-11-16 06:04:49.840 ,4,0,0.,1.2,0.,1.2,0.,1.2,,0.0,,0.0
1980-11-16 06:04:51.040 ,4,0,0.,1.2,0.,1.2,0.,1.2,,0.0,,0.0
1980-11-16 06:04:52.240 ,4,0,0.,1.2,0.,1.2,0.,1.2,,0.0,,0.0
1980-11-16 06:04:53.440 ,4,0,0.,1.2,0.,1.2,0.,1.2,,0.0,,0.0
1980-11-16 06:04:54.640 ,4,0,0.,1.2,0.,1.2,0.,1.2,,0.0,,0.0
1980-11-16 06:04:55.840 ,4,0,0.,1.2,0.,1.2,0.,1.2,,0.0,,0.0
1980-11-16 06:04:57.040 ,4,0,0.,1.2,0.,1.2,0.,1.2,,0.0,,0.0
1980-11-16 06:04:58.240 ,4,0,0.,1.2,0.,1.2,0.,1.2,,0.0,,0.0
1980-11-16 06:04:59.440 ,4,0,0.,1.2,0.,1.2,0.,1.2,,0.0,,0.0
1980-11-16 06:05:00.640 ,4,0,0.,1.2,0.,1.2,0.,1.2,,0.0,,0.0
1980-11-16 06:05:01.840 ,4,0,0.,1.2,0.,1.2,0.,1.2,,0.0,,0.0
1980-11-16 06:05:03.040 ,4,0,0.,1.2,0.,1.2,0.,1.2,,0.0,,0.0
1980-11-16 06:05:04.240 ,4,0,0.,1.2,0.,1.2,0.,1.2,,0.0,,0.0
1980-11-16 06:05:05.440 ,4,0,0.,1.2,0.,1.2,0.,1.2,,0.0,,0.0
1980-11-16 06:05:06.640 ,4,0,0.,1.2,0.,1.2,0.,1.2,,0.0,,0.0
1980-11-16 06:05:07.840 ,4,0,0.,1.2,0.,1.2,0.,1.2,,0.0,,0.0
1980-11-16 06:05:09.040 ,4,0,0.,1.2,0.,1.2,0.,1.2,,0.0,,0.0
1980-11-16 06:05:10.240 ,4,0,0.,1.2,0.,1.2,0.,1.2,,0.0,,0.0
1980-11-16 06:05:11.440 ,4,0,0.,1.2,0.,1.2,0.,1.2,,0.0,,0.0
1980-11-16 06:05:12.640 ,4,0,0.,1.2,0.,1.2,0.,1.2,,0.0,,0.0
1980-11-16 06:05:13.840 ,4,0,0.,1.2,0.,1.2,0.,1.2,,0.0,,0.0
1980-11-16 06:05:15.040 ,4,0,0.,1.2,0.,1.2,0.,1.2,,0.0,,0.0
1980-11-16 06:05:16.240 ,4,0,0.,1.2,0.,1.2,0.,1.2,,0.0,,0.0
1980-11-16 06:05:17.440 ,4,0,0.,1.2,0.,1.2,0.,1.2,,0.0,,0.0
1980-11-16 06:05:18.640 ,4,0,0.,1.2,0.,1.2,0.,1.2,,0.0,,0.0
1980-11-16 06:05:19.840 ,4,0,0.,1.2,0.,1.2,0.,1.2,,0.0,,0.0
1980-11-16 06:05:21.040 ,4,0,0.,1.2,0.,1.2,0.,1.2,,0.0,,0.0
1980-11-16 06:05:22.240 ,4,0,0.,1.2,0.,1.2,0.,1.2,,0.0,,0.0
1980-11-16 06:05:23.440 ,3,0,0.,1.2,0.,1.2,0.,1.2,,0.0,,0.0
1980-11-16 06:05:24.640 ,3,0,0.,1.2,0.,1.2,0.,1.2,,0.0,,0.0
1980-11-16 06:05:25.840 ,3,0,0.,1.2,0.,1.2,0.,1.2,,0.0,,0.0
1980-11-16 06:05:27.040 ,3,0,0.,1.2,0.,1.2,0.,1.2,,0.0,,0.0
1980-11-16 06:05:28.240 ,3,0,0.,1.2,0.,1.2,0.,1.2,,0.0,,0.0
1980-11-16 06:05:29.440 ,3,0,0.,1.2,0.,1.2,0.,1.2,,0.0,,0.0
1980-11-16 06:05:30.640 ,3,0,0.,1.2,0.,1.2,0.,1.2,,0.0,,0.0
1980-11-16 06:05:31.840 ,3,0,0.,1.2,0.,1.2,0.,1.2,,0.0,,0.0
1980-11-16 06:05:33.040 ,3,0,0.,1.2,0.,1.2,0.,1.2,,0.0,,0.0
1980-11-16 06:05:34.240 ,3,0,0.,1.2,0.,1.2,0.,1.2,,0.0,,0.0
1980-11-16 06:05:35.440 ,3,0,0.,1.2,0.,1.2,0.,1.2,,0.0,,0.0
1980-11-16 06:05:36.640 ,3,0,0.,1.2,0.,1.2,0.,1.2,,0.0,,0.0
1980-11-16 06:05:37.840 ,3,0,0.,1.2,0.,1.2,0.,1.2,,0.0,,0.0
1980-11-16 06:05:39.040 ,3,0,0.,1.2,0.,1.2,0.,1.2,,0.0,,0.0
1980-11-16 06:05:40.240 ,3,0,0.,1.2,0.,1.2,0.,1.2,,0.0,,0.0
1980-11-16 06:05:41.440 ,3,0,0.,1.2,0.,1.2,0.,1.2,,0.0,,0.0
1980-11-16 06:05:42.640 ,3,0,0.,1.2,0.,1.2,0.,1.2,,0.0,,0.0
1980-11-16 06:05:43.840 ,3,0,0.,1.2,0.,1.2,0.,1.2,,0.0,,0.0
1980-11-16 06:05:45.040 ,3,0,0.,1.2,0.,1.2,0.,1.2,,0.0,,0.0
1980-11-16 06:05:46.240 ,3,0,0.,1.2,0.,1.2,0.,1.2,,0.0,,0.0
1980-11-16 06:05:47.440 ,3,0,0.,1.2,0.,1.2,0.,1.2,,0.0,,0.0
1980-11-16 06:05:48.640 ,3,0,0.,1.2,0.,1.2,0.,1.2,,0.0,,0.0
1980-11-16 06:05:49.840 ,3,0,0.,1.2,0.,1.2,0.,1.2,,0.0,,0.0
1980-11-16 06:05:51.040 ,3,0,0.,1.2,0.,1.2,0.,1.2,,0.0,,0.0
1980-11-16 06:05:52.240 ,3,0,0.,1.2,0.,1.2,0.,1.2,,0.0,,0.0
1980-11-16 06:05:53.440 ,3,0,0.,1.2,0.,1.2,0.,1.2,,0.0,,0.0
1980-11-16 06:05:54.640 ,3,0,0.,1.2,0.,1.2,0.,1.2,,0.0,,0.0
1980-11-16 06:05:55.840 ,3,0,0.,1.2,0.,1.2,0.,1.2,,0.0,,0.0
1980-11-16 06:05:57.040 ,3,0,0.,1.2,0.,1.2,0.,1.2,,0.0,,0.0
1980-11-16 06:05:58.240 ,3,0,0.,1.2,0.,1.2,0.,1.2,,0.0,,0.0
1980-11-16 06:05:59.440 ,3,0,0.,1.2,0.,1.2,0.,1.2,,0.0,,0.0
1980-11-16 06:06:00.640 ,3,0,0.,1.2,0.,1.2,0.,1.2,,0.0,,0.0
1980-11-16 06:06:01.840 ,3,0,0.,1.2,0.,1.2,0.,1.2,,0.0,,0.0
1980-11-16 06:06:03.040 ,3,0,0.,1.2,0.,1.2,0.,1.2,,0.0,,0.0
1980-11-16 06:06:04.240 ,3,0,0.,1.2,0.,1.2,0.,1.2,,0.0,,0.0
1980-11-16 06:06:05.440 ,3,0,0.,1.2,0.,1.2,0.,1.2,,0.0,,0.0
1980-11-16 06:06:06.640 ,3,0,0.,1.2,0.,1.2,0.,1.2,,0.0,,0.0
1980-11-16 06:06:07.840 ,3,0,0.,1.2,0.,1.2,0.,1.2,,0.0,,0.0
1980-11-16 06:06:09.040 ,3,0,0.,1.2,0.,1.2,0.,1.2,,0.0,,0.0
1980-11-16 06:06:10.240 ,3,0,0.,1.2,0.,1.2,0.,1.2,,0.0,,0.0
1980-11-16 06:06:11.440 ,2,0,0.,1.2,0.,1.2,0.,1.2,,0.0,,0.0
1980-11-16 06:06:12.640 ,2,0,0.,1.2,0.,1.2,0.,1.2,,0.0,,0.0
1980-11-16 06:06:13.840 ,2,0,0.,1.2,0.,1.2,0.,1.2,,0.0,,0.0
1980-11-16 06:06:15.040 ,2,0,0.,1.2,0.,1.2,0.,1.2,,0.0,,0.0
1980-11-16 06:06:16.240 ,2,0,0.,1.2,0.,1.2,0.,1.2,,0.0,,0.0
1980-11-16 06:06:17.440 ,2,0,0.,1.2,0.,1.2,0.,1.2,,0.0,,0.0
1980-11-16 06:06:18.640 ,2,0,0.,1.2,0.,1.2,0.,1.2,,0.0,,0.0
1980-11-16 06:06:19.840 ,2,0,0.,1.2,0.,1.2,0.,1.2,,0.0,,0.0
1980-11-16 06:06:21.040 ,2,0,0.,1.2,0.,1.2,0.,1.2,,0.0,,0.0
1980-11-16 06:06:22.240 ,2,0,0.,1.2,0.,1.2,0.,1.2,,0.0,,0.0
1980-11-16 06:06:23.440 ,2,0,0.,1.2,0.,1.2,0.,1.2,,0.0,,0.0
1980-11-16 06:06:24.640 ,2,0,0.,1.2,0.,1.2,0.,1.2,,0.0,,0.0
1980-11-16 06:06:25.840 ,2,0,0.,1.2,0.,1.2,0.,1.2,,0.0,,0.0
1980-11-16 06:06:27.040 ,2,0,0.,1.2,0.,1.2,0.,1.2,,0.0,,0.0
1980-11-16 06:06:28.240 ,2,0,0.,1.2,0.,1.2,0.,1.2,,0.0,,0.0
1980-11-16 06:06:29.440 ,2,0,0.,1.2,0.,1.2,0.,1.2,,0.0,,0.0
1980-11-16 06:06:30.640 ,2,0,0.,1.2,0.,1.2,0.,1.2,,0.0,,0.0
1980-11-16 06:06:31.840 ,2,0,0.,1.2,0.,1.2,0.,1.2,,0.0,,0.0
1980-11-16 06:06:33.040 ,2,0,0.,1.2,0.,1.2,0.,1.2,,0.0,,0.0
1980-11-16 06:06:34.240 ,2,0,0.,1.2,0.,1.2,0.,1.2,,0.0,,0.0
1980-11-16 06:06:35.440 ,2,0,0.,1.2,0.,1.2,0.,1.2,,0.0,,0.0
1980-11-16 06:06:36.640 ,2,0,0.,1.2,0.,1.2,0.,1.2,,0.0,,0.0
1980-11-16 06:06:37.840 ,2,0,0.,1.2,0.,1.2,0.,1.2,,0.0,,0.0
1980-11-16 06:06:39.040 ,2,0,0.,1.2,0.,1.2,0.,1.2,,0.0,,0.0
1980-11-16 06:06:40.240 ,2,0,0.,1.2,0.,1.2,0.,1.2,,0.0,,0.0
1980-11-16 06:06:41.440 ,2,0,0.,1.2,0.,1.2,0.,1.2,,0.0,,0.0
1980-11-16 06:06:42.640 ,2,0,0.,1.2,0.,1.2,0.,1.2,,0.0,,0.0
1980-11-16 06:06:43.840 ,2,0,0.,1.2,0.,1.2,0.,1.2,,0.0,,0.0
1980-11-16 06:06:45.040 ,2,0,0.,1.2,0.,1.2,0.,1.2,,0.0,,0.0
1980-11-16 06:06:46.240 ,2,0,0.,1.2,0.,1.2,0.,1.2,,0.0,,0.0
1980-11-16 06:06:47.440 ,2,0,0.,1.2,0.,1.2,0.,1.2,,0.0,,0.0
1980-11-16 06:06:48.640 ,2,0,0.,1.2,0.,1.2,0.,1.2,,0.0,,0.0
1980-11-16 06:06:49.840 ,2,0,0.,1.2,0.,1.2,0.,1.2,,0.0,,0.0
1980-11-16 06:06:51.040 ,2,0,0.,1.2,0.,1.2,0.,1.2,,0.0,,0.0
1980-11-16 06:06:52.240 ,2,0,0.,1.2,0.,1.2,0.,1.2,,0.0,,0.0
1980-11-16 06:06:53.440 ,2,0,0.,1.2,0.,1.2,0.,1.2,,0.0,,0.0
1980-11-16 06:06:54.640 ,2,0,0.,1.2,0.,1.2,0.,1.2,,0.0,,0.0
1980-11-16 06:06:55.840 ,2,0,0.,1.2,0.,1.2,0.,1.2,,0.0,,0.0
1980-11-16 06:06:57.040 ,2,0,0.,1.2,0.,1.2,0.,1.2,,0.0,,0.0
1980-11-16 06:06:58.240 ,2,0,0.,1.2,0.,1.2,0.,1.2,,0.0,,0.0
1980-11-16 06:06:59.440 ,1,0,0.,1.2,0.,1.2,0.,1.2,,0.0,,0.0
1980-11-16 06:07:00.640 ,1,0,0.,1.2,0.,1.2,0.,1.2,,0.0,,0.0
1980-11-16 06:07:01.840 ,1,0,0.,1.2,0.,1.2,0.,1.2,,0.0,,0.0
1980-11-16 06:07:03.040 ,1,0,0.,1.2,0.,1.2,0.,1.2,,0.0,,0.0
1980-11-16 06:07:04.240 ,1,0,0.,1.2,0.,1.2,0.,1.2,,0.0,,0.0
1980-11-16 06:07:05.440 ,1,0,0.,1.2,0.,1.2,0.,1.2,,0.0,,0.0
1980-11-16 06:07:06.640 ,1,0,0.,1.2,0.,1.2,0.,1.2,,0.0,,0.0
1980-11-16 06:07:07.840 ,1,0,0.,1.2,0.,1.2,0.,1.2,,0.0,,0.0
1980-11-16 06:07:09.040 ,1,0,0.,1.2,0.,1.2,0.,1.2,,0.0,,0.0
1980-11-16 06:07:10.240 ,1,0,0.,1.2,0.,1.2,0.,1.2,,0.0,,0.0
1980-11-16 06:07:11.440 ,1,0,0.,1.2,0.,1.2,0.,1.2,,0.0,,0.0
1980-11-16 06:07:12.640 ,1,0,0.,1.2,0.,1.2,0.,1.2,,0.0,,0.0
1980-11-16 06:07:13.840 ,1,0,0.,1.2,0.,1.2,0.,1.2,,0.0,,0.0
1980-11-16 06:07:15.040 ,1,0,0.,1.2,0.,1.2,0.,1.2,,0.0,,0.0
1980-11-16 06:07:16.240 ,1,0,0.,1.2,0.,1.2,0.,1.2,,0.0,,0.0
1980-11-16 06:07:17.440 ,1,0,0.,1.2,0.,1.2,0.,1.2,,0.0,,0.0
1980-11-16 06:07:18.640 ,1,0,0.,1.2,0.,1.2,0.,1.2,,0.0,,0.0
1980-11-16 06:07:19.840 ,1,0,0.,1.2,0.,1.2,0.,1.2,,0.0,,0.0
1980-11-16 06:07:21.040 ,1,0,0.,1.2,0.,1.2,0.,1.2,,0.0,,0.0
1980-11-16 06:07:22.240 ,1,0,0.,1.2,0.,1.2,0.,1.2,,0.0,,0.0
1980-11-16 06:07:23.440 ,1,0,0.,1.2,0.,1.2,0.,1.2,,0.0,,0.0
1980-11-16 06:07:24.640 ,1,0,0.,1.2,0.,1.2,0.,1.2,,0.0,,0.0
1980-11-16 06:07:25.840 ,1,0,0.,1.2,0.,1.2,0.,1.2,,0.0,,0.0
1980-11-16 06:07:27.040 ,1,0,0.,1.2,0.,1.2,0.,1.2,,0.0,,0.0
1980-11-16 06:07:28.240 ,1,0,0.,1.2,0.,1.2,0.,1.2,,0.0,,0.0
1980-11-16 06:07:29.440 ,1,0,0.,1.2,0.,1.2,0.,1.2,,0.0,,0.0
1980-11-16 06:07:30.640 ,1,0,0.,1.2,0.,1.2,0.,1.2,,0.0,,0.0
1980-11-16 06:07:31.840 ,1,0,0.,1.2,0.,1.2,0.,1.2,,0.0,,0.0
1980-11-16 06:07:33.040 ,1,0,0.,1.2,0.,1.2,0.,1.2,,0.0,,0.0
1980-11-16 06:07:34.240 ,1,0,0.,1.2,0.,1.2,0.,1.2,,0.0,,0.0
1980-11-16 06:07:35.440 ,1,0,0.,1.2,0.,1.2,0.,1.2,,0.0,,0.0
1980-11-16 06:07:36.640 ,1,0,0.,1.2,0.,1.2,0.,1.2,,0.0,,0.0
1980-11-16 06:07:37.840 ,1,0,0.,1.2,0.,1.2,0.,1.2,,0.0,,0.0
1980-11-16 06:07:39.040 ,1,0,0.,1.2,0.,1.2,0.,1.2,,0.0,,0.0
1980-11-16 06:07:40.240 ,1,0,0.,1.2,0.,1.2,0.,1.2,,0.0,,0.0
1980-11-16 06:07:41.440 ,1,0,0.,1.2,0.,1.2,0.,1.2,,0.0,,0.0
1980-11-16 06:07:42.640 ,1,0,0.,1.2,0.,1.2,0.,1.2,,0.0,,0.0
1980-11-16 06:07:43.840 ,1,0,0.,1.2,0.,1.2,0.,1.2,,0.0,,0.0
1980-11-16 06:07:45.040 ,1,0,0.,1.2,0.,1.2,0.,1.2,,0.0,,0.0
1980-11-16 06:07:46.240 ,1,0,0.,1.2,0.,1.2,0.,1.2,,0.0,,0.0
1980-11-16 06:07:47.440 ,0,0,0.,1.2,0.,1.2,0.,1.2,,0.0,,0.0
1980-11-16 06:07:48.640 ,0,0,0.,1.2,0.,1.2,0.,1.2,,0.0,,0.0
1980-11-16 06:07:49.840 ,0,0,0.,1.2,0.,1.2,0.,1.2,,0.0,,0.0
1980-11-16 06:07:51.040 ,0,0,0.,1.2,0.,1.2,0.,1.2,,0.0,,0.0
1980-11-16 06:07:52.240 ,0,0,0.,1.2,0.,1.2,0.,1.2,,0.0,,0.0
1980-11-16 06:07:53.440 ,0,0,0.,1.2,0.,1.2,0.,1.2,,0.0,,0.0
1980-11-16 06:07:54.640 ,0,0,0.,1.2,0.,1.2,0.,1.2,,0.0,,0.0
1980-11-16 06:07:55.840 ,0,0,0.,1.2,0.,1.2,0.,1.2,,0.0,,0.0
1980-11-16 06:07:57.040 ,0,0,0.,1.2,0.,1.2,0.,1.2,,0.0,,0.0
1980-11-16 06:07:58.240 ,0,0,0.,1.2,0.,1.2,0.,1.2,,0.0,,0.0
1980-11-16 06:07:59.440 ,0,0,0.,1.2,0.,1.2,0.,1.2,,0.0,,0.0
1980-11-16 06:08:00.640 ,0,0,0.,1.2,0.,1.2,0.,1.2,,0.0,,0.0